Location: Asheville, NC
(35.6000°N, 82.5500°W)
Time: 14:36:40
(UTC-04:00)

KKS-1 - Pass Details

Date: 04 January 2018
Orbit: 637 x 651 km, 98.4° (Epoch: 19 April)

Event Time Altitude Azimuth Distance (km) Brightness Sun altitude
Rises 05:57:08 0° 195° (SSW) 2,931 ? -20.4°
Reaches altitude 10° 05:59:41 10° 210° (SSW) 2,024 ? -19.9°
Enters shadow 06:00:32 14° 218° (SW) 1,764 ? -19.7°
